Retour au catalogue

SCOUT G-1 DEB

ActifPO
NORAD 15951·DEBRIS·🇺🇸 United States

Lancé Aug 3, 1985 depuis Vandenberg Space Force Base

Loading…

Prochains Passages (prochaines 24 heures)

TLE

FraisSource: Space-Track

Époque: Sep 14, 2026, 14:06 UTC

1 15951U 85066E   26257.58779319  .00004009  00000-0  24319-2 0  9991
2 15951  89.8543 174.3122 0117725  20.5482  98.1500 14.02813170 47050

Suivez SCOUT G-1 DEB en temps réel avec AllMySat

Download on the App Store